sat.trackr.live / text

‹ back to catalog

SEDNA-2

NORAD 63153 · 2025-009DQ

PAYLOAD ACTIVE UNKNOWN

§ Identity

Operator
Country
US
Launch date
2025-01-14
Launch site
AFWTR
Launch vehicle
Mass (kg)
RCS (m²)

External: N2YO · Heavens-Above · Gunter

§ Orbital elements

Epoch: 2026-05-25T03:36:55.436832Z

Period
95.27 min
Inclination
97.4546°
Eccentricity
0.0010441
Mean motion
15.11550698 rev/d
Perigee alt
524.3 km
Apogee alt
538.7 km
Semi-major
6,909.6 km
B*
4.5704e-4
RAAN
219.2575°
Arg perigee
137.0119°
Mean anomaly
223.1929°
Rev number
7,464

§ Raw data

SEDNA-21 63153U 25009DQ  26145.15064163  .00007699  00000+0  45704-3 0  99912 63153  97.4546 219.2575 0010441 137.0119 223.1929 15.11550698 74648

JSON: /api/v1/satellites/63153 · /tle

For live sub-satellite position, see the globe view (requires WebGL).

§ Visibility from observer

Set your observer location to see the next 7 days of passes ≥ 10°. The values pass through the URL so the page stays shareable.

No JS? Fill the form by hand. The geolocation button needs JavaScript.